Weather History for Northeast Philadelphia, PA

Change the Weather History Date:

Friday, March 22, 2013

  Actual Average Record
Temperature  
Mean Temperature 34 °F -  
Max Temperature 42 °F 51 °F 73 °F (2012)
Min Temperature 28 °F 33 °F 21 °F (2002)
Degree Days  
Heating Degree Days 30    
Moisture  
Dew Point 17 °F    
Average Humidity 50    
Maximum Humidity 61    
Minimum Humidity 40    
Precipitation  
Precipitation 0.00 in - - ()
Sea Level Pressure  
Sea Level Pressure 29.87 in    
Wind  
Wind Speed 11 mph (WNW)    
Max Wind Speed 18 mph    
Max Gust Speed 31 mph    
Visibility 10 miles    
Events      
Averages and records for this station are not official NWS values.
T = Trace of Precipitation, MM = Missing Value Source: NWS Daily Summary

Daily Weather History Graph

Daily Weather History Graph

Search for Another Location

Airport:

Trip Planner

Search our weather history database for the weather conditions in past years. The results will help you decide how hot, cold, wet, or windy it might be!

Date:

Astronomy

Mar. 22, 2013 Rise Set
Actual Time 6:59 AM EDT 7:14 PM EDT
Civil Twilight 6:32 AM EDT 7:41 PM EDT
Nautical Twilight 6:01 AM EDT 8:13 PM EDT
Astronomical Twilight 5:28 AM EDT 8:45 PM EDT
Moon 2:39 PM EDT (3/22) 3:58 AM EDT (3/22)
Length of Visible Light 13h 08m
Length of Day
12h 14m
Waxing Gibbous, 77% of the Moon is Illuminated
Mar 22
Waxing Gibbous
Mar 27
Full
Apr 3
Last Quarter
Apr 10
New
Apr 18
First Quarter

Hourly Weather History & Observations

Time (EDT) Temp. Windchill Dew Point Humidity Pressure Visibility Wind Dir Wind Speed Gust Speed Precip Events Conditions
12:54 AM 28.0 °F 20.0 °F 10.9 °F 49% 29.82 in 10.0 mi West 8.1 mph - N/A   Clear
1:54 AM 28.0 °F 20.0 °F 12.0 °F 51% 29.81 in 10.0 mi West 8.1 mph - N/A   Clear
2:54 AM 28.0 °F 20.0 °F 14.0 °F 56% 29.81 in 10.0 mi West 8.1 mph - N/A   Clear
3:54 AM 28.0 °F 19.3 °F 14.0 °F 56% 29.81 in 10.0 mi West 9.2 mph - N/A   Clear
4:54 AM 28.0 °F 20.0 °F 15.1 °F 58% 29.81 in 10.0 mi West 8.1 mph - N/A   Clear
5:54 AM 28.0 °F 20.0 °F 16.0 °F 61% 29.82 in 10.0 mi WNW 8.1 mph - N/A   Clear
6:54 AM 28.0 °F 18.1 °F 16.0 °F 61% 29.84 in 10.0 mi West 11.5 mph - N/A   Clear
7:54 AM 30.0 °F 21.1 °F 18.0 °F 61% 29.85 in 10.0 mi West 10.4 mph - N/A   Clear
8:54 AM 32.0 °F 22.1 °F 19.0 °F 59% 29.88 in 10.0 mi West 13.8 mph - N/A   Clear
9:54 AM 34.0 °F 23.8 °F 19.0 °F 54% 29.88 in 10.0 mi WNW 16.1 mph 26.5 mph N/A   Mostly Cloudy
10:54 AM 36.0 °F 26.3 °F 18.0 °F 48% 29.88 in 10.0 mi WNW 16.1 mph 24.2 mph N/A   Mostly Cloudy
11:54 AM 39.0 °F 31.4 °F 18.0 °F 43% 29.86 in 10.0 mi NW 12.7 mph 27.6 mph N/A   Overcast
12:54 PM 39.9 °F 30.8 °F 18.0 °F 41% 29.86 in 10.0 mi WNW 18.4 mph 31.1 mph N/A   Mostly Cloudy
1:54 PM 39.0 °F 31.8 °F 17.1 °F 41% 29.85 in 10.0 mi NW 11.5 mph 23.0 mph N/A   Overcast
2:54 PM 39.0 °F 30.6 °F 17.1 °F 41% 29.85 in 10.0 mi WNW 15.0 mph 24.2 mph N/A   Overcast
3:54 PM 41.0 °F 32.8 °F 18.0 °F 40% 29.85 in 10.0 mi WNW 16.1 mph 21.9 mph N/A   Overcast
4:54 PM 39.9 °F 32.9 °F 18.0 °F 41% 29.86 in 10.0 mi WNW 11.5 mph 25.3 mph N/A   Overcast
5:54 PM 39.9 °F 33.4 °F 18.0 °F 41% 29.87 in 10.0 mi WNW 10.4 mph 17.3 mph N/A   Overcast
6:54 PM 39.0 °F 31.0 °F 17.1 °F 41% 29.90 in 10.0 mi WNW 13.8 mph 24.2 mph N/A   Scattered Clouds
7:54 PM 36.0 °F 28.5 °F 18.0 °F 48% 29.93 in 10.0 mi WNW 10.4 mph - N/A   Clear
8:54 PM 35.1 °F 27.4 °F 18.0 °F 50% 29.93 in 10.0 mi WNW 10.4 mph - N/A   Clear
9:54 PM 35.1 °F 27.4 °F 18.0 °F 50% 29.95 in 10.0 mi WNW 10.4 mph 19.6 mph N/A   Clear
10:54 PM 34.0 °F 25.5 °F 18.0 °F 52% 29.95 in 10.0 mi NW 11.5 mph 21.9 mph N/A   Clear
11:54 PM 33.1 °F 24.9 °F 18.0 °F 54% 29.96 in 10.0 mi WNW 10.4 mph - N/A   Clear